Погода Анучино

Погода Анучино : погода сейчас, прогноз погоды и архив. Всё, что Вы хотите узнать о погоде Анучино!

Хотите узнать прогноз погоды Анучино? Тогда Вам сюда: Погода Анучино

Поиск расширенной информации на нашем сайте:

Другие новости

Новости СМИ2

Главная страница сайта

Новости сайта

02.10.2013

Напоминаем, что на нашем новом сайте вы можете получить высокодетализированные прогнозы погоды по пунктам России, СНГ и мира (включающие важные для авиации метеовеличины, такие как направление и скорость ветра, видимость, явления погоды, количество и форма облачности, нижняя и верхняя граница облачности), а также ознакомиться с разнообразными материалами по авиационной метеорологии и подборкой полезных ссылок на эту тему.

Сайт Метеоцентр.Азия посвящён разработке технологий оптимизации авиаметеорологического обслуживания, включая проектирование и перспективное создание нескольких автоматизированных авиаметеорологических систем:
- система выпуска высокодетальных прогностических карт явлений погоды для нижнего воздушного пространства по России и ближнему зарубежью;
- система верификации прогнозов TAF (выпускаемых синоптиками официальных АМСГ РФ и ближнего зарубежья) и AUTOTAF (выпускаемых сайтом Метеоцентр.Азия) - выявление ошибок, онлайн-сопоставление с фактической погодой METAR, автоматическое внесение коррективов в прогнозы при резком отклонении фактической погоды от прогноза, подсчёт оправдываемости прогнозов по элементам и в целом;
- система обработки, анализа и отображения авиаметеорологической информации для применения провайдерами метеорологической информации.

Рекомендуем: Срочная компьютерная помощь пушкино - это всегда быстро и надежно.

Погода Анучино - сегодня

Время (UTC), дата Ветер
(°,м/с) 
Видим.   Явления Облачность Т
(°С)
Тd
(°С)
f(%) Тe
(°С)
Pmin
(гПа)
dP
(гПа)
Po
(мм)
O2
(г/м3)
Тmin Tmax R s Состояние
почвы
15 25.06.17 240 (ЮЗ) 20000 м    ясно 
+11.4 +10.6 95 +15  1009.4  1.5  740  284           
18 25.06.17 210 (ЮЗ) 20000 м    9/9 600 м 
[Sc]
+12.1 +10 87 +13  1010  0.6  741  284           
21 25.06.17 220 (ЮЗ) 20000 м    10/10 600 м 
[Sc]
+12.5 +9.4 81 +15  1010.9  0.8  741  284  +11.3        влажная 
00 26.06.17 240 (ЮЗ) 20000 м    8/6 600 м верхняя 
[Cu med, cong|Ci fib]
+15.8 +10.5 71 +19  1010.7  0.1  742  281           
03 26.06.17 200 (Ю) 20000 м    3/3 600 м 
[Cu hum]
+20.6 +12.4 59 +25  1009.1  -1.2  741  275           
06 26.06.17 340 (С) 20000 м    1/1 600 м 
[Cu hum]
+23.8 +11.6 46 +27  1007  -1.9  739  272           
09 26.06.17 220 (ЮЗ) 20000 м    3/0 верхняя 
[Ci sp]
+22.9 +13.2 54 +29  1006.5  -0.5  739  272    +24.5       
12 26.06.17 250 (З) 20000 м    4/0 средняя 
[Ac trans]
+16.9 +10.7 67 +20  1008.7  1.8  740  279           
15 26.06.17 240 (ЮЗ) 20000 м    3/0 средняя 
[Ac trans]
+14 +10.2 78 +17  1009.5  0.5  741  282           
18 26.06.17 220 (ЮЗ) 20000 м    10/10 600 м 
[Sc]
+13.4 +9.3 76 +15  1009.5  741  283           
21 26.06.17 230 (ЮЗ) 20000 м    8/4 600 м средняя 
[Sc|Ac trans]
+13.6 +10.2 80 +16  1009.5  741  282  +12.7        влажная 
00 27.06.17 210 (ЮЗ) 20000 м  слаб. ливневой дождь  10/10 600 м кучево-дожд. 
[Cb cap]
+15.5 +12.7 83 +21  1009.9  0.5  741  280           
03 27.06.17 250 (З) 20000 м  {ливн. осадки}  9/0 средняя 
[Ac As]
+21.1 +14.9 68 +30  1009.5  0.1  741  274           
06 27.06.17 220 (ЮЗ) 20000 м    10/3 600 м верхняя 
[Cu hum|Cc]
+24.7 +16.2 59 +36  1008.3  -0.9  740  270           
09 27.06.17 350 (С) 20000 м    6/3 600 м верхняя 
[Cu med, cong|Ci sp]
+25.7 +17.5 61 +39  1008.6  0.3  741  269    +26.5  0.3     
12 27.06.17 тихо ()   20000 м    4/0 средняя, верхняя 
[Ac trans|Ci sp]
+19.3 +17.2 88 +32  1010.5  1.4  742  275           
15 27.06.17 190 (Ю) 20000 м    ясно 
+16.6 +15.8 95 +28  1011.4  0.7  742  278           
18 27.06.17 180 (Ю) 20000 м    3/3 300 м 
[St]
+15.2 +14.3 94 +25  1011.9  0.3  742  280           
21 27.06.17 260 (З) 20000 м    ясно 
+15.2 +13.9 92 +24  1012.4  0.5  743  281  +14.2        влажная 
00 28.06.17 220 (ЮЗ) 20000 м    1/0 верхняя 
[Cc]
+21.3 +15.7 70 +31  1011.8  -0.1  743  274           
03 28.06.17 260 (З) 20000 м    ясно 
+26.4 +17.2 57 +39  1010.5  -1  742  269           
06 28.06.17 280 (З) 20000 м    10/0 верхняя 
[Cs]
+26.9 +16.6 53 +39  1009.6  -0.8  741  268           
09 28.06.17 230 (ЮЗ) 20000 м    ясно 
+25 +17.2 62 +38  1009.6  0.1  741  270    +27.3       
12 28.06.17 220 (ЮЗ) 20000 м    3/0 верхняя 
[Ci fib]
+19.5 +15.2 76 +30  1011.5  1.4  742  276           
15 28.06.17 220 (ЮЗ) 20000 м    3/0 верхняя 
[Ci fib]
+17.7 +14.8 83 +28  1011.5  0.1  742  278           
Время (UTC), дата Ветер
(°,м/с) 
Видим.   Явления Облачность Т
(°С)
Тd
(°С)
f(%) Тe
(°С)
Pmin
(гПа)
dP
(гПа)
Po
(мм)
O2
(г/м3)
Тmin Tmax R s Состояние
почвы

Для получения пояснительной информации подведите курсор к названию столбца.

ПОГОДА Анучино - архив

Всё, что Вы хотите узнать о погоде Анучино - удобно и подробно!

Выберите нужную дату (начиная с 1 января 2015* года) и нажмите кнопку "Найти".
Будут отображены архивные сводки погоды по пункту Анучино, начиная с указанной даты.


Отображать данные в формате CSV (для использования в таблицах Excel)


Внимание! Наш архив погоды предназначен исключительно для личного некоммерческого использования в познавательных целях. Если Вам необходимы официальные справки о состоянии погоды (для производственных, юридических, коммерческих и т.п. целей), обращайтесь в органы Росгидромета.

*Примечание: данная дата относится к архиву по метеостанциям СССР (Россия, СНГ, Балтия).
Архив по метеостанциям Зарубежной Европы и Азии (кроме Китая) хранится 10 дней, по другим регионам земного шара (Китай, Африка, Америка, Австралия, Океания) - 1 день.

Анучино - район местоположения метеостанции


Название, широта, долгота, высота метеостанции:
Анучино 44°ш. 133.1°д. 188 м над ур. моря [Российская Федерация]

Дополнительная информация

В oтличие oт бoльшинства пoгoдных сайтoв мы публикуем пoдрoбную метеoинфoрмацию в детальнoм прoфессиoнальнoм фoрмате.

Характеристики температуры и влажнoсти вoздуха измеряются на высoте 2 м в тени вдали oт зданий и деревьев.
Скoрoсть ветра измеряется на высoте 10 м (на урoвне рoста челoвека скoрoсть ветра ниже в 1.5-2 раза). Если метеoстанция нахoдится в гoрoде или в лесу, тo скoрoсть ветра занижена на 2-4 м/с пo сравнению с oткрытым местoм. Скoрoсть ветра над акватoриями крупных рек и oзёр, а также на вершинах хoлмoв на 2-5 м/с выше, чем в oбычных услoвиях.
Атмoсфернoе давление в разных тoчках местнoсти мoжет значительнo oтличаться oт давления на метеoстанции, в зависимoсти oт услoвий рельефа (при пoдъёме на 10 м давление пoнижается примернo на 1 мм рт.ст.).